Wetterdaten: aktuell Sonntag, 21.04.2024 01:25
Datum Zeit Temp. I. Temp. A. Temp. 2 Temp. 3 Temp. Wind Windchill X Feuchte I. Feuchte A. Feuchte 2 Feuchte 3 Luftdruck Regen Wind Richtung Richtung Taupunkt Windchill Windben
21.04.2024 01:25 19,8 C 4,4 C 14,3 C 14,5 C 3,9 C 2,3 C 46 % 69 % 67 % 58 % 1021,8 hPa 0,0 mm 10,9 km/h (2 Bft) N-NW 337 -0,8 C 0,8 C 6,1 km/h (2 Bft)
21.04.2024 01:20 19,8 C 4,4 C 14,3 C 14,5 C 3,9 C 2,2 C 46 % 68 % 67 % 57 % 1021,8 hPa 0,0 mm 11,4 km/h (2 Bft) NW 315 -1,0 C 0,4 C 7,7 km/h (2 Bft)
21.04.2024 01:15 19,9 C 4,5 C 14,3 C 14,4 C 3,7 C 2,1 C 46 % 67 % 67 % 57 % 1021,8 hPa 0,0 mm 12,1 km/h (2 Bft) N-NW 337 -1,1 C 0,1 C 10,1 km/h (2 Bft)
21.04.2024 01:10 19,9 C 4,5 C 14,3 C 14,4 C 3,7 C 2,1 C 46 % 66 % 67 % 57 % 1022,3 hPa 0,0 mm 12,3 km/h (3 Bft) NW 315 -1,3 C -0,0 C 11,1 km/h (2 Bft)
21.04.2024 01:05 20,0 C 4,6 C 14,2 C 14,4 C 3,9 C 2,1 C 46 % 66 % 67 % 57 % 1022,3 hPa 0,0 mm 11,4 km/h (2 Bft) NW 315 -1,2 C 0,7 C 9,0 km/h (2 Bft)
21.04.2024 01:00 20,0 C 4,5 C 14,3 C 14,4 C 3,8 C 1,7 C 46 % 67 % 67 % 57 % 1022,3 hPa 0,0 mm 12,7 km/h (3 Bft) N-NW 337 -1,1 C -0,2 C 8,2 km/h (2 Bft)
21.04.2024 00:55 20,1 C 4,5 C 14,3 C 14,4 C 3,7 C 1,2 C 46 % 67 % 67 % 57 % 1022,3 hPa 0,0 mm 15,9 km/h (3 Bft) NW 315 -1,1 C -2,0 C 7,7 km/h (2 Bft)
21.04.2024 00:50 20,1 C 4,5 C 14,3 C 14,4 C 3,7 C 1,0 C 46 % 67 % 67 % 57 % 1022,1 hPa 0,0 mm 18,2 km/h (3 Bft) NW 315 -1,1 C -3,1 C 12,6 km/h (3 Bft)
21.04.2024 00:45 20,2 C 4,8 C 14,3 C 14,4 C 4,1 C 1,3 C 46 % 68 % 67 % 57 % 1022,1 hPa 0,0 mm 20,3 km/h (4 Bft) NW 315 -0,6 C -3,5 C 15,4 km/h (3 Bft)
21.04.2024 00:40 20,2 C 5,1 C 14,2 C 14,4 C 4,6 C 2,3 C 46 % 65 % 67 % 57 % 1022,1 hPa 0,0 mm 17,5 km/h (3 Bft) N-NW 337 -0,9 C -2,0 C 24,3 km/h (4 Bft)
21.04.2024 00:35 20,2 C 5,5 C 14,2 C 14,4 C 4,7 C 3,1 C 46 % 68 % 67 % 57 % 1022,1 hPa 0,0 mm 12,5 km/h (3 Bft) N-NW 337 0,1 C 1,0 C 14,6 km/h (3 Bft)
21.04.2024 00:30 20,4 C 5,4 C 14,2 C 14,4 C 4,9 C 3,1 C 46 % 68 % 67 % 57 % 1021,7 hPa 0,0 mm 12,1 km/h (2 Bft) N-NW 337 -0,0 C 1,2 C 7,2 km/h (2 Bft)
21.04.2024 00:25 20,4 C 5,5 C 14,2 C 14,4 C 4,7 C 3,2 C 46 % 68 % 67 % 57 % 1021,7 hPa 0,0 mm 11,6 km/h (2 Bft) N 360 0,1 C 1,6 C 8,0 km/h (2 Bft)
21.04.2024 00:20 20,4 C 5,5 C 14,2 C 14,4 C 4,9 C 3,2 C 46 % 69 % 67 % 57 % 1021,7 hPa 0,0 mm 11,6 km/h (2 Bft) NW 315 0,3 C 1,6 C 14,2 km/h (3 Bft)
21.04.2024 00:15 20,5 C 5,5 C 14,2 C 14,4 C 4,9 C 3,1 C 46 % 69 % 67 % 57 % 1021,7 hPa 0,0 mm 12,1 km/h (2 Bft) N-NO 22 0,3 C 1,3 C 8,5 km/h (2 Bft)
21.04.2024 00:10 20,6 C 5,6 C 14,2 C 14,3 C 5,1 C 3,2 C 45 % 69 % 67 % 57 % 1022,1 hPa 0,0 mm 12,5 km/h (3 Bft) NW 315 0,4 C 1,2 C 6,4 km/h (2 Bft)
21.04.2024 00:05 20,7 C 5,7 C 14,2 C 14,3 C 5,2 C 3,5 C 45 % 69 % 67 % 57 % 1022,1 hPa 0,0 mm 11,8 km/h (2 Bft) NW 315 0,5 C 1,7 C 8,0 km/h (2 Bft)
21.04.2024 00:00 20,7 C 5,7 C 14,2 C 14,4 C 5,2 C 3,6 C 45 % 69 % 67 % 57 % 1022,1 hPa 0,0 mm 11,6 km/h (2 Bft) N-NW 337 0,5 C 1,8 C 12,2 km/h (2 Bft)
20.04.2024 23:55 20,8 C 5,8 C 14,2 C 14,3 C 5,3 C 3,7 C 45 % 68 % 67 % 57 % 1022,1 hPa 0,0 mm 12,1 km/h (2 Bft) N-NW 337 0,4 C 1,6 C 8,9 km/h (2 Bft)
20.04.2024 23:50 20,9 C 5,9 C 14,2 C 14,3 C 5,4 C 3,6 C 45 % 66 % 67 % 57 % 1022,2 hPa 0,0 mm 12,7 km/h (3 Bft) NW 315 0,0 C 1,4 C 6,3 km/h (2 Bft)
20.04.2024 23:45 21,0 C 5,9 C 14,2 C 14,3 C 5,2 C 3,7 C 45 % 66 % 67 % 57 % 1022,2 hPa 0,0 mm 13,2 km/h (3 Bft) N-NW 337 0,0 C 1,1 C 13,2 km/h (3 Bft)
20.04.2024 23:40 21,0 C 6,0 C 14,1 C 14,3 C 5,5 C 3,7 C 45 % 66 % 67 % 57 % 1022,2 hPa 0,0 mm 13,4 km/h (3 Bft) NW 315 0,1 C 1,1 C 11,4 km/h (2 Bft)
20.04.2024 23:35 21,1 C 6,0 C 14,1 C 14,3 C 5,5 C 3,8 C 45 % 67 % 67 % 57 % 1022,2 hPa 0,0 mm 13,4 km/h (3 Bft) N-NW 337 0,3 C 1,1 C 12,2 km/h (2 Bft)
20.04.2024 23:30 21,2 C 6,1 C 14,1 C 14,3 C 5,6 C 3,9 C 45 % 66 % 67 % 57 % 1022,3 hPa 0,0 mm 13,4 km/h (3 Bft) NW 315 0,2 C 1,2 C 7,6 km/h (2 Bft)
20.04.2024 23:25 21,2 C 6,2 C 14,1 C 14,3 C 5,7 C 4,0 C 45 % 65 % 67 % 57 % 1022,3 hPa 0,0 mm 15,0 km/h (3 Bft) N-NW 337 0,1 C 0,5 C 10,5 km/h (2 Bft)
20.04.2024 23:20 21,2 C 6,2 C 14,1 C 14,3 C 5,5 C 4,1 C 45 % 67 % 67 % 57 % 1022,3 hPa 0,0 mm 14,6 km/h (3 Bft) N-NW 337 0,5 C 0,7 C 9,2 km/h (2 Bft)
20.04.2024 23:15 21,4 C 6,3 C 14,1 C 14,3 C 5,8 C 4,1 C 45 % 67 % 67 % 57 % 1022,3 hPa 0,0 mm 14,6 km/h (3 Bft) N 360 0,6 C 0,8 C 11,6 km/h (2 Bft)
20.04.2024 23:10 21,4 C 6,4 C 14,1 C 14,3 C 5,9 C 4,0 C 45 % 65 % 67 % 57 % 1022,4 hPa 0,0 mm 15,5 km/h (3 Bft) NO 45 0,3 C 0,5 C 11,6 km/h (2 Bft)
20.04.2024 23:05 21,4 C 6,5 C 14,1 C 14,3 C 6,0 C 4,2 C 46 % 65 % 67 % 57 % 1022,4 hPa 0,0 mm 15,0 km/h (3 Bft) N 360 0,4 C 0,9 C 14,5 km/h (3 Bft)
20.04.2024 23:00 21,4 C 6,5 C 14,1 C 14,3 C 5,7 C 4,1 C 45 % 65 % 67 % 57 % 1022,4 hPa 0,0 mm 15,9 km/h (3 Bft) N 360 0,4 C 0,5 C 9,7 km/h (2 Bft)
20.04.2024 22:55 21,4 C 6,5 C 14,1 C 14,3 C 5,9 C 4,1 C 45 % 66 % 67 % 57 % 1022,4 hPa 0,0 mm 15,7 km/h (3 Bft) N-NW 337 0,6 C 0,6 C 10,9 km/h (2 Bft)
20.04.2024 22:50 21,4 C 6,5 C 14,1 C 14,3 C 5,9 C 3,9 C 45 % 67 % 67 % 57 % 1022,1 hPa 0,0 mm 15,9 km/h (3 Bft) N-NW 337 0,8 C 0,5 C 18,2 km/h (3 Bft)
20.04.2024 22:45 21,4 C 6,6 C 14,1 C 14,3 C 6,0 C 4,1 C 45 % 67 % 67 % 57 % 1022,1 hPa 0,0 mm 14,3 km/h (3 Bft) NW 315 0,9 C 1,4 C 13,7 km/h (3 Bft)
20.04.2024 22:40 21,2 C 6,6 C 14,1 C 14,3 C 5,9 C 3,8 C 45 % 68 % 67 % 57 % 1022,1 hPa 0,0 mm 15,2 km/h (3 Bft) S 180 1,1 C 0,9 C 14,0 km/h (3 Bft)
20.04.2024 22:35 21,2 C 6,6 C 14,1 C 14,3 C 5,9 C 3,6 C 45 % 69 % 67 % 57 % 1022,1 hPa 0,0 mm 17,1 km/h (3 Bft) N 360 1,3 C 0,1 C 8,9 km/h (2 Bft)
20.04.2024 22:30 21,4 C 6,6 C 14,1 C 14,3 C 6,0 C 3,7 C 45 % 70 % 67 % 57 % 1021,9 hPa 0,0 mm 17,1 km/h (3 Bft) N 360 1,5 C 0,1 C 12,9 km/h (3 Bft)
20.04.2024 22:25 21,2 C 6,8 C 14,0 C 14,3 C 6,2 C 4,1 C 45 % 69 % 67 % 57 % 1021,9 hPa 0,0 mm 15,7 km/h (3 Bft) N-NW 337 1,5 C 0,9 C 17,1 km/h (3 Bft)
20.04.2024 22:20 21,2 C 6,8 C 14,0 C 14,2 C 6,3 C 4,3 C 45 % 70 % 67 % 57 % 1021,9 hPa 0,0 mm 14,8 km/h (3 Bft) N-NW 337 1,7 C 1,4 C 10,5 km/h (2 Bft)
20.04.2024 22:15 21,2 C 6,9 C 14,0 C 14,2 C 6,4 C 4,7 C 45 % 68 % 67 % 57 % 1021,9 hPa 0,0 mm 15,5 km/h (3 Bft) N-NW 337 1,4 C 1,1 C 15,1 km/h (3 Bft)
20.04.2024 22:10 21,2 C 6,9 C 14,0 C 14,2 C 6,4 C 4,8 C 45 % 68 % 67 % 57 % 1021,9 hPa 0,0 mm 15,0 km/h (3 Bft) N-NW 337 1,4 C 1,4 C 12,4 km/h (3 Bft)
20.04.2024 22:05 21,2 C 7,0 C 14,0 C 14,2 C 6,2 C 4,6 C 45 % 68 % 67 % 57 % 1021,9 hPa 0,0 mm 16,6 km/h (3 Bft) N-NW 337 1,5 C 0,8 C 10,5 km/h (2 Bft)
20.04.2024 22:00 21,2 C 7,0 C 14,0 C 14,2 C 6,4 C 4,6 C 45 % 67 % 67 % 57 % 1021,9 hPa 0,0 mm 16,8 km/h (3 Bft) N-NW 337 1,3 C 0,7 C 9,5 km/h (2 Bft)
20.04.2024 21:55 21,2 C 7,0 C 14,0 C 14,2 C 6,4 C 4,4 C 45 % 67 % 67 % 57 % 1021,9 hPa 0,0 mm 18,2 km/h (3 Bft) N-NW 337 1,3 C 0,1 C 17,1 km/h (3 Bft)
20.04.2024 21:50 21,2 C 7,0 C 13,9 C 14,2 C 6,1 C 4,2 C 45 % 67 % 67 % 57 % 1021,7 hPa 0,0 mm 20,0 km/h (4 Bft) N-NW 337 1,3 C -0,6 C 10,9 km/h (2 Bft)
20.04.2024 21:45 21,1 C 7,1 C 13,9 C 14,1 C 6,5 C 4,2 C 45 % 68 % 67 % 57 % 1021,7 hPa 0,0 mm 21,8 km/h (4 Bft) NW 315 1,6 C -1,1 C 13,8 km/h (3 Bft)
20.04.2024 21:40 21,1 C 7,3 C 13,9 C 14,1 C 6,7 C 4,4 C 45 % 66 % 67 % 57 % 1021,7 hPa 0,0 mm 19,3 km/h (3 Bft) N-NW 337 1,4 C 0,1 C 16,7 km/h (3 Bft)
20.04.2024 21:35 21,1 C 7,3 C 13,9 C 14,1 C 6,7 C 4,8 C 46 % 69 % 67 % 57 % 1021,7 hPa 0,0 mm 16,2 km/h (3 Bft) N-NW 337 2,0 C 1,3 C 17,5 km/h (3 Bft)
20.04.2024 21:30 21,1 C 7,3 C 13,9 C 14,1 C 6,8 C 4,9 C 46 % 70 % 67 % 57 % 1021,4 hPa 0,0 mm 16,2 km/h (3 Bft) N-NW 337 2,2 C 1,3 C 11,7 km/h (2 Bft)
20.04.2024 21:25 21,1 C 7,3 C 13,9 C 14,1 C 6,8 C 5,0 C 46 % 70 % 67 % 57 % 1021,4 hPa 0,0 mm 15,5 km/h (3 Bft) N-NW 337 2,2 C 1,6 C 10,6 km/h (2 Bft)
20.04.2024 21:20 21,0 C 7,4 C 13,9 C 14,1 C 6,8 C 4,9 C 46 % 70 % 67 % 57 % 1021,4 hPa 0,0 mm 15,2 km/h (3 Bft) NW 315 2,3 C 1,9 C 16,7 km/h (3 Bft)
20.04.2024 21:15 21,0 C 7,4 C 13,9 C 14,1 C 6,8 C 5,0 C 46 % 70 % 67 % 57 % 1021,4 hPa 0,0 mm 14,3 km/h (3 Bft) N-NW 337 2,3 C 2,3 C 10,6 km/h (2 Bft)
20.04.2024 21:10 21,0 C 7,4 C 13,9 C 14,1 C 6,7 C 4,9 C 46 % 70 % 67 % 57 % 1021,1 hPa 0,0 mm 13,9 km/h (3 Bft) N-NW 337 2,3 C 2,5 C 10,1 km/h (2 Bft)
20.04.2024 21:05 21,0 C 7,5 C 13,9 C 14,1 C 6,8 C 4,5 C 46 % 69 % 67 % 57 % 1021,1 hPa 0,0 mm 16,4 km/h (3 Bft) NW 315 2,2 C 1,5 C 7,9 km/h (2 Bft)
20.04.2024 21:00 21,0 C 7,5 C 13,9 C 14,1 C 6,8 C 4,6 C 46 % 66 % 67 % 57 % 1021,1 hPa 0,0 mm 16,6 km/h (3 Bft) NW 315 1,6 C 1,4 C 9,7 km/h (2 Bft)
20.04.2024 20:55 21,0 C 7,6 C 13,9 C 14,1 C 7,0 C 4,9 C 46 % 68 % 67 % 57 % 1021,1 hPa 0,0 mm 14,3 km/h (3 Bft) N-NW 337 2,1 C 2,6 C 11,1 km/h (2 Bft)
20.04.2024 20:50 21,0 C 7,7 C 13,9 C 14,1 C 7,1 C 5,3 C 46 % 68 % 67 % 57 % 1020,9 hPa 0,0 mm 11,8 km/h (2 Bft) N-NW 337 2,2 C 4,0 C 11,3 km/h (2 Bft)
20.04.2024 20:45 21,0 C 7,8 C 13,9 C 14,1 C 7,1 C 5,8 C 46 % 70 % 67 % 57 % 1020,9 hPa 0,0 mm 10,0 km/h (2 Bft) N-NW 337 2,7 C 5,2 C 12,4 km/h (3 Bft)
20.04.2024 20:40 20,9 C 7,8 C 13,9 C 14,1 C 7,1 C 5,7 C 46 % 70 % 67 % 57 % 1020,9 hPa 0,0 mm 12,1 km/h (2 Bft) NW 315 2,7 C 3,9 C 7,2 km/h (2 Bft)
20.04.2024 20:35 20,9 C 7,8 C 13,9 C 14,1 C 7,3 C 5,7 C 46 % 68 % 67 % 57 % 1020,9 hPa 0,0 mm 13,9 km/h (3 Bft) N-NW 337 2,3 C 3,0 C 12,7 km/h (3 Bft)
20.04.2024 20:30 20,9 C 7,8 C 13,9 C 14,1 C 7,4 C 6,0 C 46 % 68 % 67 % 57 % 1020,4 hPa 0,0 mm 13,7 km/h (3 Bft) N-NW 337 2,3 C 3,1 C 16,9 km/h (3 Bft)
20.04.2024 20:25 20,9 C 7,7 C 13,9 C 14,1 C 7,3 C 5,9 C 46 % 69 % 67 % 57 % 1020,4 hPa 0,0 mm 12,5 km/h (3 Bft) NW 315 2,4 C 3,6 C 8,9 km/h (2 Bft)
20.04.2024 20:20 20,9 C 7,7 C 13,9 C 14,1 C 7,4 C 6,1 C 46 % 69 % 67 % 57 % 1020,4 hPa 0,0 mm 11,8 km/h (2 Bft) NW 315 2,4 C 4,0 C 11,6 km/h (2 Bft)
20.04.2024 20:15 20,9 C 7,7 C 13,9 C 14,1 C 7,4 C 6,3 C 46 % 69 % 67 % 57 % 1020,4 hPa 0,0 mm 11,8 km/h (2 Bft) NW 315 2,4 C 4,0 C 10,6 km/h (2 Bft)
20.04.2024 20:10 20,9 C 7,8 C 13,9 C 14,1 C 7,5 C 6,4 C 46 % 69 % 67 % 57 % 1020,4 hPa 0,0 mm 12,1 km/h (2 Bft) N-NW 337 2,5 C 3,9 C 11,6 km/h (2 Bft)
20.04.2024 20:05 20,9 C 7,7 C 13,9 C 14,1 C 7,3 C 6,2 C 46 % 70 % 67 % 57 % 1020,4 hPa 0,0 mm 12,5 km/h (3 Bft) NW 315 2,6 C 3,6 C 10,3 km/h (2 Bft)
20.04.2024 20:00 20,9 C 7,6 C 13,9 C 14,1 C 7,2 C 5,9 C 46 % 70 % 67 % 57 % 1020,4 hPa 0,0 mm 12,5 km/h (3 Bft) N-NW 337 2,5 C 3,5 C 10,1 km/h (2 Bft)
20.04.2024 19:55 20,8 C 7,6 C 13,9 C 14,1 C 7,3 C 6,1 C 46 % 69 % 67 % 57 % 1020,4 hPa 0,0 mm 12,1 km/h (2 Bft) NW 315 2,3 C 3,7 C 9,2 km/h (2 Bft)
20.04.2024 19:50 20,9 C 7,7 C 13,9 C 14,1 C 7,3 C 6,4 C 46 % 70 % 67 % 57 % 1020,4 hPa 0,0 mm 10,7 km/h (2 Bft) NW 315 2,6 C 4,6 C 8,0 km/h (2 Bft)
20.04.2024 19:45 20,8 C 7,8 C 13,9 C 14,1 C 7,4 C 6,6 C 46 % 71 % 67 % 57 % 1020,4 hPa 0,0 mm 9,8 km/h (2 Bft) W 270 2,9 C 5,3 C 9,2 km/h (2 Bft)
20.04.2024 19:40 20,8 C 7,9 C 13,9 C 14,1 C 7,4 C 6,4 C 46 % 71 % 67 % 57 % 1020,4 hPa 0,0 mm 10,5 km/h (2 Bft) NW 315 3,0 C 5,0 C 7,2 km/h (2 Bft)
20.04.2024 19:35 20,8 C 7,9 C 13,9 C 14,1 C 7,4 C 5,7 C 46 % 70 % 67 % 57 % 1020,4 hPa 0,0 mm 14,8 km/h (3 Bft) NW 315 2,8 C 2,7 C 10,3 km/h (2 Bft)
20.04.2024 19:30 20,8 C 8,0 C 13,9 C 14,2 C 7,4 C 5,5 C 46 % 70 % 67 % 57 % 1020,4 hPa 0,0 mm 16,4 km/h (3 Bft) W 270 2,9 C 2,1 C 8,7 km/h (2 Bft)
20.04.2024 19:25 20,8 C 8,0 C 13,9 C 14,1 C 7,6 C 5,8 C 46 % 68 % 67 % 57 % 1020,4 hPa 0,0 mm 15,0 km/h (3 Bft) W-NW 292 2,5 C 2,7 C 14,5 km/h (3 Bft)
20.04.2024 19:20 20,8 C 8,0 C 13,9 C 14,1 C 7,7 C 6,5 C 46 % 68 % 67 % 57 % 1020,4 hPa 0,0 mm 14,1 km/h (3 Bft) W 270 2,5 C 3,1 C 15,8 km/h (3 Bft)
20.04.2024 19:15 20,7 C 8,0 C 13,9 C 14,1 C 7,6 C 6,2 C 46 % 68 % 67 % 57 % 1020,4 hPa 0,0 mm 15,5 km/h (3 Bft) W-NW 292 2,5 C 2,5 C 7,7 km/h (2 Bft)
20.04.2024 19:10 20,7 C 8,0 C 13,9 C 14,1 C 7,5 C 6,0 C 46 % 67 % 67 % 57 % 1020,7 hPa 0,0 mm 16,2 km/h (3 Bft) W 270 2,3 C 2,2 C 11,3 km/h (2 Bft)
20.04.2024 19:05 20,7 C 8,0 C 13,9 C 14,1 C 7,2 C 5,7 C 46 % 66 % 67 % 57 % 1020,7 hPa 0,0 mm 17,7 km/h (3 Bft) NW 315 2,0 C 1,6 C 14,3 km/h (3 Bft)
20.04.2024 19:00 20,7 C 8,0 C 13,9 C 14,2 C 7,5 C 5,7 C 46 % 65 % 67 % 57 % 1020,7 hPa 0,0 mm 18,9 km/h (3 Bft) W-NW 292 1,8 C 1,1 C 12,1 km/h (2 Bft)
20.04.2024 18:55 20,7 C 8,0 C 13,9 C 14,2 C 7,3 C 5,8 C 46 % 64 % 67 % 57 % 1020,7 hPa 0,0 mm 16,8 km/h (3 Bft) W-NW 292 1,6 C 1,9 C 13,4 km/h (3 Bft)
20.04.2024 18:50 20,8 C 8,1 C 13,9 C 14,1 C 7,5 C 5,8 C 46 % 64 % 67 % 57 % 1020,3 hPa 0,0 mm 15,7 km/h (3 Bft) N-NW 337 1,7 C 2,5 C 15,9 km/h (3 Bft)
20.04.2024 18:45 20,8 C 8,2 C 13,9 C 14,2 C 7,5 C 5,4 C 46 % 66 % 67 % 57 % 1020,3 hPa 0,0 mm 17,1 km/h (3 Bft) N-NW 337 2,2 C 2,1 C 16,7 km/h (3 Bft)
20.04.2024 18:40 20,9 C 8,3 C 13,9 C 14,1 C 7,7 C 5,3 C 46 % 64 % 67 % 57 % 1020,3 hPa 0,0 mm 19,3 km/h (3 Bft) NW 315 1,9 C 1,3 C 15,1 km/h (3 Bft)
20.04.2024 18:35 20,9 C 8,8 C 13,9 C 14,1 C 8,3 C 6,3 C 46 % 59 % 67 % 57 % 1020,3 hPa 0,0 mm 20,9 km/h (4 Bft) NW 315 1,2 C 1,4 C 18,7 km/h (3 Bft)
20.04.2024 18:30 21,0 C 9,0 C 13,9 C 14,2 C 8,6 C 6,9 C 46 % 56 % 67 % 57 % 1020,5 hPa 0,0 mm 20,9 km/h (4 Bft) W-NW 292 0,7 C 1,7 C 15,1 km/h (3 Bft)
20.04.2024 18:25 21,1 C 9,1 C 13,9 C 14,1 C 8,9 C 7,6 C 46 % 56 % 67 % 57 % 1020,5 hPa 0,0 mm 21,4 km/h (4 Bft) NW 315 0,8 C 1,7 C 16,4 km/h (3 Bft)
20.04.2024 18:20 21,1 C 9,3 C 13,9 C 14,1 C 9,1 C 7,9 C 46 % 53 % 67 % 57 % 1020,5 hPa 0,0 mm 20,9 km/h (4 Bft) N-NW 337 0,2 C 2,1 C 20,8 km/h (4 Bft)
20.04.2024 18:15 21,2 C 9,6 C 13,9 C 14,1 C 9,4 C 8,4 C 46 % 57 % 67 % 57 % 1020,5 hPa 0,0 mm 20,0 km/h (4 Bft) W-NW 292 1,5 C 2,8 C 13,0 km/h (3 Bft)
20.04.2024 18:10 21,2 C 9,6 C 13,9 C 14,1 C 9,6 C 8,7 C 47 % 55 % 67 % 57 % 1020,4 hPa 0,0 mm 20,0 km/h (4 Bft) N-NW 337 1,0 C 2,8 C 17,1 km/h (3 Bft)
20.04.2024 18:05 21,2 C 9,6 C 13,9 C 14,1 C 9,6 C 9,2 C 47 % 56 % 67 % 57 % 1020,4 hPa 0,0 mm 16,8 km/h (3 Bft) NW 315 1,3 C 3,9 C 12,1 km/h (2 Bft)
20.04.2024 18:00 21,2 C 9,6 C 13,9 C 14,1 C 9,4 C 8,9 C 47 % 56 % 67 % 57 % 1020,4 hPa 0,0 mm 15,9 km/h (3 Bft) W-NW 292 1,3 C 4,3 C 19,8 km/h (3 Bft)
20.04.2024 17:55 21,2 C 9,6 C 14,0 C 14,1 C 9,0 C 7,3 C 47 % 60 % 67 % 57 % 1020,4 hPa 0,0 mm 18,0 km/h (3 Bft) W-NW 292 2,2 C 3,5 C 9,2 km/h (2 Bft)
20.04.2024 17:50 21,2 C 9,5 C 13,9 C 14,2 C 9,0 C 6,9 C 47 % 57 % 67 % 57 % 1020,6 hPa 0,0 mm 20,5 km/h (4 Bft) W-NW 292 1,4 C 2,5 C 10,6 km/h (2 Bft)
20.04.2024 17:45 21,2 C 9,7 C 13,9 C 14,2 C 9,5 C 8,3 C 47 % 51 % 67 % 57 % 1020,6 hPa 0,0 mm 20,5 km/h (4 Bft) N-NW 337 0,1 C 2,7 C 22,9 km/h (4 Bft)
20.04.2024 17:40 21,3 C 10,0 C 13,9 C 14,1 C 9,9 C 8,9 C 47 % 50 % 67 % 57 % 1020,6 hPa 0,0 mm 18,2 km/h (3 Bft) W-NW 292 0,1 C 3,9 C 15,3 km/h (3 Bft)
20.04.2024 17:35 21,2 C 10,1 C 13,9 C 14,1 C 9,9 C 9,6 C 47 % 50 % 67 % 57 % 1020,6 hPa 0,0 mm 16,4 km/h (3 Bft) NW 315 0,2 C 4,7 C 12,6 km/h (3 Bft)
20.04.2024 17:30 21,4 C 10,1 C 14,0 C 14,1 C 9,9 C 9,6 C 47 % 48 % 67 % 57 % 1020,7 hPa 0,0 mm 17,3 km/h (3 Bft) NW 315 -0,4 C 4,4 C 10,0 km/h (2 Bft)
20.04.2024 17:25 21,4 C 10,1 C 13,9 C 14,2 C 10,2 C 9,6 C 47 % 48 % 67 % 57 % 1020,7 hPa 0,0 mm 17,5 km/h (3 Bft) NW 315 -0,4 C 4,3 C 16,9 km/h (3 Bft)
20.04.2024 17:20 21,4 C 10,1 C 13,9 C 14,2 C 10,4 C 9,8 C 47 % 47 % 67 % 57 % 1020,7 hPa 0,0 mm 16,6 km/h (3 Bft) W 270 -0,7 C 4,6 C 13,4 km/h (3 Bft)
20.04.2024 17:15 21,6 C 10,1 C 13,9 C 14,1 C 10,9 C 10,1 C 47 % 51 % 67 % 57 % 1020,7 hPa 0,0 mm 17,5 km/h (3 Bft) W-NW 292 0,4 C 4,3 C 15,1 km/h (3 Bft)
20.04.2024 17:10 21,6 C 10,1 C 13,9 C 14,1 C 12,4 C 11,0 C 47 % 50 % 67 % 57 % 1020,9 hPa 0,0 mm 16,6 km/h (3 Bft) W 270 0,2 C 4,6 C 16,1 km/h (3 Bft)
20.04.2024 17:05 21,6 C 10,6 C 13,9 C 14,1 C 14,3 C 13,9 C 48 % 52 % 67 % 57 % 1020,9 hPa 0,0 mm 13,2 km/h (3 Bft) W-NW 292 1,2 C 6,6 C 13,4 km/h (3 Bft)
20.04.2024 17:00 21,5 C 10,7 C 13,9 C 14,1 C 14,4 C 14,7 C 48 % 56 % 67 % 57 % 1020,9 hPa 0,0 mm 12,3 km/h (3 Bft) W 270 2,3 C 7,2 C 10,3 km/h (2 Bft)
20.04.2024 16:55 21,4 C 10,4 C 14,0 C 14,2 C 13,3 C 13,6 C 48 % 54 % 67 % 57 % 1020,9 hPa 0,0 mm 12,7 km/h (3 Bft) W-SW 247 1,5 C 6,6 C 10,5 km/h (2 Bft)
20.04.2024 16:50 21,3 C 10,1 C 14,0 C 14,1 C 12,7 C 12,4 C 48 % 52 % 67 % 57 % 1020,7 hPa 0,0 mm 14,8 km/h (3 Bft) N-NW 337 0,7 C 5,3 C 10,5 km/h (2 Bft)
20.04.2024 16:45 21,2 C 10,0 C 13,9 C 14,2 C 12,5 C 12,6 C 48 % 51 % 67 % 57 % 1020,7 hPa 0,0 mm 16,6 km/h (3 Bft) W 270 0,3 C 4,5 C 13,7 km/h (3 Bft)
20.04.2024 16:40 21,1 C 10,1 C 13,9 C 14,2 C 11,4 C 11,5 C 48 % 56 % 67 % 57 % 1020,7 hPa 0,0 mm 18,0 km/h (3 Bft) NW 315 1,7 C 4,1 C 9,2 km/h (2 Bft)
20.04.2024 16:35 21,0 C 9,8 C 13,9 C 14,2 C 10,5 C 10,0 C 48 % 53 % 67 % 57 % 1020,7 hPa 0,0 mm 18,4 km/h (3 Bft) N-NW 337 0,7 C 3,6 C 14,6 km/h (3 Bft)
20.04.2024 16:30 21,1 C 10,0 C 14,0 C 14,2 C 10,9 C 10,1 C 48 % 58 % 67 % 57 % 1020,7 hPa 0,0 mm 18,2 km/h (3 Bft) N-NW 337 2,1 C 3,9 C 17,1 km/h (3 Bft)
20.04.2024 16:25 21,0 C 10,0 C 14,0 C 14,2 C 11,9 C 11,1 C 48 % 52 % 67 % 57 % 1020,7 hPa 0,0 mm 20,3 km/h (4 Bft) NW 315 0,6 C 3,2 C 11,9 km/h (2 Bft)
20.04.2024 16:20 21,0 C 10,0 C 13,9 C 14,2 C 12,9 C 12,1 C 48 % 52 % 67 % 57 % 1020,7 hPa 0,0 mm 20,9 km/h (4 Bft) N-NW 337 0,6 C 3,0 C 17,2 km/h (3 Bft)
20.04.2024 16:15 20,9 C 10,4 C 13,9 C 14,2 C 13,4 C 13,2 C 48 % 57 % 67 % 57 % 1020,7 hPa 0,0 mm 18,7 km/h (3 Bft) N-NW 337 2,3 C 4,2 C 18,2 km/h (3 Bft)
20.04.2024 16:10 20,8 C 10,2 C 14,0 C 14,1 C 12,7 C 12,9 C 48 % 57 % 67 % 57 % 1021,0 hPa 0,0 mm 16,2 km/h (3 Bft) N-NW 337 2,1 C 4,9 C 13,5 km/h (3 Bft)
20.04.2024 16:05 20,8 C 9,8 C 13,9 C 14,2 C 11,0 C 11,4 C 48 % 62 % 67 % 57 % 1021,0 hPa 0,0 mm 13,7 km/h (3 Bft) NW 315 2,9 C 5,5 C 19,5 km/h (3 Bft)
20.04.2024 16:00 20,8 C 9,4 C 14,0 C 14,2 C 9,4 C 9,2 C 47 % 61 % 67 % 57 % 1021,0 hPa 0,0 mm 14,3 km/h (3 Bft) NW 315 2,3 C 4,7 C 12,4 km/h (3 Bft)
20.04.2024 15:55 20,8 C 9,2 C 14,0 C 14,2 C 9,7 C 8,6 C 48 % 59 % 67 % 57 % 1021,0 hPa 0,0 mm 16,6 km/h (3 Bft) N-NW 337 1,6 C 3,5 C 10,9 km/h (2 Bft)
20.04.2024 15:50 20,8 C 9,1 C 13,9 C 14,1 C 12,2 C 10,2 C 49 % 61 % 67 % 57 % 1020,9 hPa 0,0 mm 13,7 km/h (3 Bft) N-NW 337 2,0 C 4,6 C 14,0 km/h (3 Bft)
20.04.2024 15:45 20,8 C 9,8 C 14,0 C 14,2 C 15,0 C 15,0 C 49 % 60 % 67 % 57 % 1020,9 hPa 0,0 mm 10,2 km/h (2 Bft) NW 315 2,4 C 7,3 C 15,9 km/h (3 Bft)
20.04.2024 15:40 20,8 C 9,7 C 13,9 C 14,2 C 13,8 C 13,8 C 49 % 62 % 67 % 57 % 1020,9 hPa 0,0 mm 10,0 km/h (2 Bft) N-NO 22 2,8 C 7,3 C 5,1 km/h (1 Bft)
20.04.2024 15:35 20,8 C 9,1 C 13,9 C 14,2 C 9,7 C 9,9 C 49 % 63 % 67 % 57 % 1020,9 hPa 0,0 mm 11,6 km/h (2 Bft) N-NO 22 2,4 C 5,7 C 10,6 km/h (2 Bft)
20.04.2024 15:30 20,7 C 8,8 C 14,0 C 14,2 C 8,7 C 8,5 C 48 % 62 % 67 % 57 % 1020,9 hPa 0,0 mm 12,7 km/h (3 Bft) N-NW 337 1,9 C 4,8 C 9,3 km/h (2 Bft)
20.04.2024 15:25 20,7 C 8,5 C 14,0 C 14,2 C 8,2 C 6,9 C 48 % 59 % 67 % 57 % 1020,9 hPa 0,0 mm 17,7 km/h (3 Bft) N-NW 337 1,0 C 2,2 C 10,1 km/h (2 Bft)
20.04.2024 15:20 20,8 C 8,8 C 14,0 C 14,2 C 9,0 C 7,4 C 48 % 61 % 67 % 57 % 1020,9 hPa 0,0 mm 22,3 km/h (4 Bft) N-NW 337 1,7 C 1,0 C 11,4 km/h (2 Bft)
20.04.2024 15:15 20,8 C 9,6 C 13,9 C 14,2 C 11,1 C 9,8 C 48 % 58 % 67 % 57 % 1020,9 hPa 0,0 mm 23,0 km/h (4 Bft) N-NW 337 1,8 C 1,8 C 20,3 km/h (4 Bft)
20.04.2024 15:10 20,8 C 10,1 C 14,0 C 14,2 C 12,7 C 11,9 C 48 % 53 % 67 % 57 % 1020,8 hPa 0,0 mm 19,3 km/h (3 Bft) NW 315 1,0 C 3,6 C 27,4 km/h (4 Bft)
20.04.2024 15:05 20,8 C 10,3 C 14,0 C 14,2 C 13,0 C 13,1 C 48 % 47 % 67 % 57 % 1020,8 hPa 0,0 mm 16,4 km/h (3 Bft) NW 315 -0,5 C 4,9 C 14,8 km/h (3 Bft)
20.04.2024 15:00 20,7 C 10,3 C 14,0 C 14,2 C 11,7 C 11,9 C 48 % 48 % 67 % 57 % 1020,8 hPa 0,0 mm 15,7 km/h (3 Bft) N-NW 337 -0,2 C 5,2 C 16,3 km/h (3 Bft)
20.04.2024 14:55 20,8 C 10,0 C 14,0 C 14,2 C 10,5 C 10,3 C 48 % 52 % 67 % 57 % 1020,8 hPa 0,0 mm 17,3 km/h (3 Bft) N-NW 337 0,6 C 4,2 C 16,7 km/h (3 Bft)
20.04.2024 14:50 20,7 C 9,8 C 14,0 C 14,2 C 10,7 C 9,6 C 48 % 50 % 67 % 57 % 1020,6 hPa 0,0 mm 19,1 km/h (3 Bft) W-NW 292 -0,1 C 3,3 C 17,1 km/h (3 Bft)
20.04.2024 14:45 20,7 C 10,0 C 14,0 C 14,2 C 12,2 C 11,2 C 48 % 57 % 67 % 57 % 1020,6 hPa 0,0 mm 20,0 km/h (4 Bft) N-NW 337 1,9 C 3,3 C 16,1 km/h (3 Bft)
20.04.2024 14:40 20,7 C 10,3 C 14,0 C 14,2 C 13,6 C 12,8 C 48 % 54 % 67 % 57 % 1020,6 hPa 0,0 mm 18,9 km/h (3 Bft) NW 315 1,4 C 4,0 C 16,7 km/h (3 Bft)
20.04.2024 14:35 20,6 C 10,3 C 14,0 C 14,2 C 14,6 C 14,3 C 48 % 56 % 67 % 57 % 1020,6 hPa 0,0 mm 18,0 km/h (3 Bft) NW 315 1,9 C 4,3 C 13,4 km/h (3 Bft)
20.04.2024 14:30 20,6 C 10,2 C 14,0 C 14,2 C 14,5 C 14,5 C 48 % 57 % 67 % 57 % 1020,9 hPa 0,0 mm 16,8 km/h (3 Bft) NW 315 2,1 C 4,7 C 13,2 km/h (3 Bft)
20.04.2024 14:25 20,5 C 10,0 C 14,0 C 14,2 C 14,1 C 13,8 C 47 % 56 % 67 % 57 % 1020,9 hPa 0,0 mm 16,4 km/h (3 Bft) NW 315 1,6 C 4,6 C 16,6 km/h (3 Bft)
20.04.2024 14:20 20,5 C 9,6 C 14,0 C 14,2 C 14,1 C 14,1 C 46 % 53 % 67 % 57 % 1020,9 hPa 0,0 mm 14,3 km/h (3 Bft) NW 315 0,5 C 5,0 C 13,5 km/h (3 Bft)
20.04.2024 14:15 20,6 C 9,4 C 14,0 C 14,2 C 13,7 C 13,7 C 47 % 56 % 67 % 57 % 1020,9 hPa 0,0 mm 13,4 km/h (3 Bft) O-SO 112 1,1 C 5,1 C 13,4 km/h (3 Bft)
20.04.2024 14:10 20,6 C 9,4 C 14,0 C 14,2 C 13,4 C 13,7 C 47 % 58 % 67 % 57 % 1020,9 hPa 0,0 mm 12,3 km/h (3 Bft) NW 315 1,6 C 5,7 C 10,6 km/h (2 Bft)
20.04.2024 14:05 20,6 C 9,1 C 14,0 C 14,2 C 12,1 C 12,5 C 47 % 62 % 67 % 57 % 1020,9 hPa 0,0 mm 12,5 km/h (3 Bft) N-NW 337 2,2 C 5,2 C 10,0 km/h (2 Bft)
20.04.2024 14:00 20,6 C 8,6 C 14,0 C 14,2 C 9,8 C 10,7 C 47 % 60 % 67 % 57 % 1020,9 hPa 0,0 mm 12,7 km/h (3 Bft) N-NW 337 1,3 C 4,5 C 9,5 km/h (2 Bft)
20.04.2024 13:55 20,6 C 8,0 C 14,0 C 14,3 C 7,8 C 7,2 C 47 % 60 % 67 % 57 % 1020,9 hPa 0,0 mm 13,4 km/h (3 Bft) N-NW 337 0,7 C 3,5 C 13,2 km/h (3 Bft)
20.04.2024 13:50 20,6 C 7,3 C 14,0 C 14,2 C 7,0 C 5,9 C 47 % 61 % 67 % 57 % 1020,9 hPa 0,0 mm 14,3 km/h (3 Bft) NW 315 0,3 C 2,2 C 7,7 km/h (2 Bft)
20.04.2024 13:45 20,6 C 7,4 C 14,0 C 14,3 C 7,0 C 5,7 C 47 % 65 % 67 % 57 % 1020,9 hPa 0,0 mm 16,2 km/h (3 Bft) NW 315 1,3 C 1,4 C 15,1 km/h (3 Bft)
20.04.2024 13:40 20,6 C 7,5 C 14,1 C 14,2 C 7,1 C 5,2 C 47 % 62 % 67 % 57 % 1020,9 hPa 0,0 mm 18,4 km/h (3 Bft) N-NW 337 0,7 C 0,7 C 25,7 km/h (4 Bft)
20.04.2024 13:35 20,6 C 7,6 C 14,0 C 14,2 C 7,4 C 5,9 C 47 % 56 % 67 % 57 % 1020,9 hPa 0,0 mm 21,6 km/h (4 Bft) N-NW 337 -0,6 C -0,4 C 20,9 km/h (4 Bft)
20.04.2024 13:30 20,6 C 8,2 C 14,0 C 14,3 C 8,2 C 6,9 C 47 % 55 % 67 % 57 % 1020,7 hPa 0,0 mm 21,8 km/h (4 Bft) N-NW 337 -0,3 C 0,4 C 24,0 km/h (4 Bft)
20.04.2024 13:25 20,7 C 8,5 C 14,0 C 14,2 C 9,5 C 8,3 C 47 % 54 % 67 % 57 % 1020,7 hPa 0,0 mm 20,9 km/h (4 Bft) N-NO 22 -0,3 C 1,0 C 17,1 km/h (3 Bft)
20.04.2024 13:20 20,7 C 8,9 C 14,0 C 14,2 C 10,8 C 9,9 C 47 % 56 % 67 % 57 % 1020,7 hPa 0,0 mm 18,9 km/h (3 Bft) N 360 0,6 C 2,3 C 23,8 km/h (4 Bft)
20.04.2024 13:15 20,7 C 9,4 C 14,1 C 14,2 C 12,0 C 11,1 C 47 % 59 % 67 % 57 % 1020,7 hPa 0,0 mm 17,1 km/h (3 Bft) N-NW 337 1,8 C 3,6 C 13,2 km/h (3 Bft)
20.04.2024 13:10 20,7 C 9,7 C 14,0 C 14,2 C 13,1 C 12,6 C 47 % 62 % 67 % 57 % 1020,7 hPa 0,0 mm 17,5 km/h (3 Bft) N-NW 337 2,8 C 3,8 C 13,2 km/h (3 Bft)
20.04.2024 13:05 20,7 C 9,6 C 14,1 C 14,2 C 13,3 C 13,2 C 47 % 59 % 67 % 57 % 1020,7 hPa 0,0 mm 15,2 km/h (3 Bft) N-NW 337 2,0 C 4,6 C 13,5 km/h (3 Bft)
20.04.2024 13:00 20,7 C 9,5 C 14,0 C 14,3 C 12,0 C 12,7 C 47 % 65 % 67 % 57 % 1020,7 hPa 0,0 mm 13,4 km/h (3 Bft) NW 315 3,3 C 5,2 C 10,3 km/h (2 Bft)
20.04.2024 12:55 20,7 C 8,9 C 14,0 C 14,3 C 10,2 C 10,1 C 47 % 66 % 67 % 57 % 1020,7 hPa 0,0 mm 14,3 km/h (3 Bft) W-NW 292 2,9 C 4,1 C 7,9 km/h (2 Bft)
20.04.2024 12:50 20,6 C 8,5 C 14,0 C 14,3 C 10,4 C 9,3 C 47 % 64 % 67 % 57 % 1020,7 hPa 0,0 mm 15,2 km/h (3 Bft) NW 315 2,1 C 3,2 C 11,7 km/h (2 Bft)
20.04.2024 12:45 20,7 C 8,7 C 14,1 C 14,3 C 11,8 C 11,2 C 47 % 62 % 67 % 57 % 1020,7 hPa 0,0 mm 15,2 km/h (3 Bft) N-NW 337 1,8 C 3,5 C 16,1 km/h (3 Bft)
20.04.2024 12:40 20,7 C 8,9 C 14,1 C 14,2 C 12,5 C 12,1 C 47 % 65 % 67 % 57 % 1020,7 hPa 0,0 mm 15,5 km/h (3 Bft) NW 315 2,7 C 3,6 C 10,5 km/h (2 Bft)
20.04.2024 12:35 20,7 C 9,0 C 14,0 C 14,2 C 12,3 C 12,3 C 47 % 66 % 67 % 57 % 1020,7 hPa 0,0 mm 16,2 km/h (3 Bft) NW 315 3,0 C 3,4 C 8,7 km/h (2 Bft)
20.04.2024 12:30 20,7 C 8,8 C 14,1 C 14,3 C 12,5 C 12,3 C 47 % 67 % 67 % 57 % 1020,5 hPa 0,0 mm 16,8 km/h (3 Bft) N-NW 337 3,0 C 2,9 C 14,3 km/h (3 Bft)
20.04.2024 12:25 20,6 C 8,7 C 14,1 C 14,3 C 11,6 C 11,8 C 47 % 69 % 67 % 57 % 1020,5 hPa 0,0 mm 15,9 km/h (3 Bft) W-NW 292 3,3 C 3,2 C 12,1 km/h (2 Bft)
20.04.2024 12:20 20,6 C 8,4 C 14,1 C 14,3 C 10,5 C 10,3 C 47 % 69 % 67 % 57 % 1020,5 hPa 0,0 mm 15,9 km/h (3 Bft) N-NW 337 3,0 C 2,8 C 15,1 km/h (3 Bft)
20.04.2024 12:15 20,6 C 7,8 C 14,1 C 14,3 C 10,2 C 9,5 C 47 % 66 % 67 % 57 % 1020,5 hPa 0,0 mm 17,1 km/h (3 Bft) NW 315 1,9 C 1,6 C 12,9 km/h (3 Bft)
20.04.2024 12:10 20,6 C 8,0 C 14,1 C 14,3 C 10,1 C 10,1 C 47 % 67 % 67 % 57 % 1020,6 hPa 0,0 mm 15,7 km/h (3 Bft) NW 315 2,3 C 2,4 C 16,1 km/h (3 Bft)
20.04.2024 12:05 20,6 C 8,0 C 14,1 C 14,3 C 10,6 C 10,1 C 47 % 67 % 67 % 57 % 1020,6 hPa 0,0 mm 15,7 km/h (3 Bft) NW 315 2,3 C 2,4 C 16,1 km/h (3 Bft)
20.04.2024 12:00 20,6 C 8,2 C 14,1 C 14,3 C 10,8 C 10,4 C 47 % 68 % 67 % 57 % 1020,6 hPa 0,0 mm 15,5 km/h (3 Bft) N-NW 337 2,7 C 2,7 C 13,7 km/h (3 Bft)
20.04.2024 11:55 20,5 C 8,0 C 14,1 C 14,3 C 10,8 C 10,5 C 47 % 67 % 67 % 57 % 1020,6 hPa 0,0 mm 15,7 km/h (3 Bft) N-NW 337 2,3 C 2,4 C 10,0 km/h (2 Bft)
20.04.2024 11:50 20,4 C 8,0 C 14,1 C 14,3 C 10,2 C 10,3 C 47 % 69 % 67 % 57 % 1020,4 hPa 0,0 mm 16,4 km/h (3 Bft) NW 315 2,7 C 2,1 C 10,5 km/h (2 Bft)
20.04.2024 11:45 20,4 C 7,8 C 14,1 C 14,3 C 9,1 C 8,6 C 47 % 69 % 67 % 57 % 1020,4 hPa 0,0 mm 18,9 km/h (3 Bft) N-NW 337 2,5 C 0,8 C 15,1 km/h (3 Bft)
20.04.2024 11:40 20,4 C 7,5 C 14,1 C 14,3 C 9,5 C 8,4 C 47 % 65 % 67 % 57 % 1020,4 hPa 0,0 mm 18,9 km/h (3 Bft) W 270 1,4 C 0,5 C 16,7 km/h (3 Bft)
20.04.2024 11:35 20,4 C 7,9 C 14,1 C 14,3 C 10,1 C 9,8 C 47 % 67 % 67 % 57 % 1020,4 hPa 0,0 mm 16,8 km/h (3 Bft) N-NW 337 2,2 C 1,8 C 15,1 km/h (3 Bft)
20.04.2024 11:30 20,4 C 7,9 C 14,1 C 14,3 C 9,6 C 9,4 C 47 % 68 % 67 % 57 % 1020,1 hPa 0,0 mm 16,2 km/h (3 Bft) NW 315 2,4 C 2,1 C 14,0 km/h (3 Bft)
20.04.2024 11:25 20,2 C 7,6 C 14,1 C 14,3 C 8,9 C 8,6 C 47 % 67 % 67 % 57 % 1020,1 hPa 0,0 mm 17,1 km/h (3 Bft) N-NW 337 1,9 C 1,3 C 13,2 km/h (3 Bft)
20.04.2024 11:20 20,2 C 7,4 C 14,1 C 14,3 C 8,2 C 7,8 C 47 % 68 % 67 % 57 % 1020,1 hPa 0,0 mm 17,1 km/h (3 Bft) N-NW 337 1,9 C 1,1 C 11,6 km/h (2 Bft)
20.04.2024 11:15 20,2 C 7,3 C 14,1 C 14,3 C 7,3 C 7,2 C 47 % 69 % 67 % 57 % 1020,1 hPa 0,0 mm 16,2 km/h (3 Bft) N-NW 337 2,0 C 1,3 C 11,6 km/h (2 Bft)
20.04.2024 11:10 20,1 C 7,1 C 14,1 C 14,3 C 7,2 C 7,2 C 47 % 71 % 67 % 57 % 1020,1 hPa 0,0 mm 15,7 km/h (3 Bft) N 360 2,2 C 1,3 C 15,1 km/h (3 Bft)
20.04.2024 11:05 20,1 C 7,0 C 14,1 C 14,3 C 7,7 C 7,2 C 47 % 71 % 67 % 57 % 1020,1 hPa 0,0 mm 16,2 km/h (3 Bft) N-NW 337 2,1 C 0,9 C 12,1 km/h (2 Bft)
20.04.2024 11:00 20,1 C 6,9 C 14,1 C 14,3 C 7,3 C 6,9 C 47 % 72 % 67 % 57 % 1020,1 hPa 0,0 mm 15,7 km/h (3 Bft) NW 315 2,2 C 1,1 C 13,2 km/h (3 Bft)
20.04.2024 10:55 20,1 C 6,8 C 14,1 C 14,3 C 6,9 C 6,4 C 47 % 72 % 67 % 57 % 1020,1 hPa 0,0 mm 15,9 km/h (3 Bft) N 360 2,1 C 0,8 C 15,0 km/h (3 Bft)
20.04.2024 10:50 20,1 C 6,6 C 14,1 C 14,3 C 6,5 C 6,0 C 47 % 72 % 67 % 57 % 1019,9 hPa 0,0 mm 15,9 km/h (3 Bft) NW 315 1,9 C 0,6 C 11,6 km/h (2 Bft)
20.04.2024 10:45 20,0 C 6,4 C 14,1 C 14,3 C 6,1 C 4,9 C 47 % 72 % 67 % 57 % 1019,9 hPa 0,0 mm 15,2 km/h (3 Bft) N-NW 337 1,7 C 0,7 C 13,4 km/h (3 Bft)
20.04.2024 10:40 20,0 C 6,2 C 14,1 C 14,3 C 5,8 C 4,4 C 47 % 73 % 67 % 57 % 1019,9 hPa 0,0 mm 14,6 km/h (3 Bft) NW 315 1,7 C 0,7 C 10,5 km/h (2 Bft)
20.04.2024 10:35 20,0 C 6,1 C 14,1 C 14,3 C 5,4 C 4,1 C 48 % 72 % 67 % 57 % 1019,9 hPa 0,0 mm 16,2 km/h (3 Bft) NW 315 1,4 C -0,2 C 11,7 km/h (2 Bft)
20.04.2024 10:30 20,0 C 6,1 C 14,1 C 14,3 C 5,7 C 4,1 C 48 % 73 % 67 % 57 % 1019,6 hPa 0,0 mm 16,4 km/h (3 Bft) N-NW 337 1,6 C -0,3 C 15,9 km/h (3 Bft)
20.04.2024 10:25 20,1 C 6,2 C 14,1 C 14,3 C 5,7 C 3,7 C 48 % 71 % 67 % 57 % 1019,6 hPa 0,0 mm 18,7 km/h (3 Bft) N 360 1,3 C -1,1 C 15,3 km/h (3 Bft)
20.04.2024 10:20 20,0 C 6,1 C 14,1 C 14,3 C 5,6 C 3,6 C 48 % 69 % 67 % 57 % 1019,6 hPa 0,0 mm 18,4 km/h (3 Bft) NW 315 0,8 C -1,1 C 23,3 km/h (4 Bft)
20.04.2024 10:15 20,1 C 6,1 C 14,1 C 14,3 C 5,8 C 4,3 C 48 % 72 % 67 % 57 % 1019,6 hPa 0,0 mm 15,9 km/h (3 Bft) N-NW 337 1,4 C -0,0 C 12,4 km/h (3 Bft)
20.04.2024 10:10 20,1 C 6,1 C 14,1 C 14,3 C 5,8 C 4,4 C 48 % 72 % 67 % 57 % 1019,2 hPa 0,0 mm 16,6 km/h (3 Bft) N-NW 337 1,4 C -0,3 C 20,6 km/h (4 Bft)
20.04.2024 10:05 20,2 C 6,1 C 14,1 C 14,3 C 5,9 C 4,6 C 48 % 73 % 67 % 57 % 1019,2 hPa 0,0 mm 17,3 km/h (3 Bft) N-NW 337 1,6 C -0,7 C 11,1 km/h (2 Bft)
20.04.2024 10:00 20,1 C 6,2 C 14,1 C 14,3 C 6,0 C 4,7 C 48 % 74 % 67 % 57 % 1019,2 hPa 0,0 mm 16,6 km/h (3 Bft) N-NW 337 1,9 C -0,2 C 10,1 km/h (2 Bft)
20.04.2024 09:55 20,2 C 6,2 C 14,1 C 14,3 C 6,0 C 4,9 C 48 % 73 % 67 % 57 % 1019,2 hPa 0,0 mm 17,1 km/h (3 Bft) N-NW 337 1,7 C -0,4 C 18,3 km/h (3 Bft)
20.04.2024 09:50 20,2 C 6,1 C 14,1 C 14,3 C 6,0 C 5,0 C 48 % 72 % 67 % 57 % 1019,1 hPa 0,0 mm 16,6 km/h (3 Bft) N-NW 337 1,4 C -0,3 C 13,7 km/h (3 Bft)
20.04.2024 09:45 20,2 C 6,0 C 14,1 C 14,3 C 5,8 C 4,8 C 48 % 73 % 67 % 57 % 1019,1 hPa 0,0 mm 16,6 km/h (3 Bft) N 360 1,5 C -0,5 C 14,8 km/h (3 Bft)
20.04.2024 09:40 20,1 C 6,0 C 14,1 C 14,3 C 5,8 C 4,6 C 48 % 74 % 67 % 57 % 1019,1 hPa 0,0 mm 16,4 km/h (3 Bft) N-NW 337 1,7 C -0,4 C 7,4 km/h (2 Bft)
20.04.2024 09:35 20,1 C 5,9 C 14,1 C 14,4 C 5,6 C 4,3 C 48 % 73 % 67 % 57 % 1019,1 hPa 0,0 mm 16,8 km/h (3 Bft) NW 315 1,4 C -0,7 C 14,2 km/h (3 Bft)
20.04.2024 09:30 20,1 C 5,8 C 14,1 C 14,3 C 5,4 C 4,1 C 48 % 73 % 67 % 57 % 1018,8 hPa 0,0 mm 14,8 km/h (3 Bft) N-NW 337 1,3 C 0,1 C 12,1 km/h (2 Bft)
20.04.2024 09:25 20,1 C 5,7 C 14,2 C 14,3 C 5,3 C 3,8 C 48 % 73 % 67 % 57 % 1018,8 hPa 0,0 mm 14,8 km/h (3 Bft) NW 315 1,2 C 0,0 C 10,0 km/h (2 Bft)
20.04.2024 09:20 20,1 C 5,6 C 14,1 C 14,3 C 5,2 C 3,5 C 48 % 73 % 67 % 57 % 1018,8 hPa 0,0 mm 14,8 km/h (3 Bft) NW 315 1,2 C -0,1 C 11,3 km/h (2 Bft)
20.04.2024 09:15 20,1 C 5,7 C 14,2 C 14,4 C 5,0 C 3,7 C 48 % 75 % 67 % 57 % 1018,8 hPa 0,0 mm 14,1 km/h (3 Bft) N-NW 337 1,6 C 0,4 C 12,4 km/h (3 Bft)
20.04.2024 09:10 20,1 C 5,6 C 14,2 C 14,4 C 5,2 C 3,7 C 48 % 74 % 67 % 57 % 1018,3 hPa 0,0 mm 15,0 km/h (3 Bft) N 360 1,3 C -0,2 C 10,8 km/h (2 Bft)
20.04.2024 09:05 20,0 C 5,6 C 14,2 C 14,4 C 5,1 C 3,4 C 48 % 74 % 67 % 57 % 1018,3 hPa 0,0 mm 15,9 km/h (3 Bft) NW 315 1,3 C -0,6 C 12,1 km/h (2 Bft)
20.04.2024 09:00 20,0 C 5,6 C 14,2 C 14,4 C 5,1 C 3,2 C 48 % 74 % 67 % 57 % 1018,3 hPa 0,0 mm 16,8 km/h (3 Bft) N-NW 337 1,3 C -1,1 C 13,7 km/h (3 Bft)
20.04.2024 08:55 19,9 C 5,4 C 14,2 C 14,4 C 4,8 C 2,9 C 48 % 74 % 67 % 57 % 1018,3 hPa 0,0 mm 16,4 km/h (3 Bft) N-NW 337 1,1 C -1,1 C 14,5 km/h (3 Bft)
20.04.2024 08:50 19,8 C 5,4 C 14,2 C 14,4 C 4,5 C 2,8 C 48 % 74 % 67 % 57 % 1018,0 hPa 0,0 mm 15,9 km/h (3 Bft) NW 315 1,1 C -0,9 C 13,7 km/h (3 Bft)
20.04.2024 08:45 19,7 C 5,3 C 14,2 C 14,4 C 4,5 C 2,8 C 48 % 74 % 67 % 57 % 1018,0 hPa 0,0 mm 14,8 km/h (3 Bft) NW 315 1,0 C -0,5 C 14,3 km/h (3 Bft)
20.04.2024 08:40 19,6 C 5,2 C 14,2 C 14,4 C 4,6 C 2,8 C 48 % 75 % 67 % 57 % 1018,0 hPa 0,0 mm 14,3 km/h (3 Bft) N-NW 337 1,1 C -0,3 C 14,8 km/h (3 Bft)
20.04.2024 08:35 19,5 C 5,2 C 14,2 C 14,4 C 4,5 C 2,4 C 47 % 75 % 67 % 57 % 1018,0 hPa 0,0 mm 14,6 km/h (3 Bft) N-NW 337 1,1 C -0,5 C 13,4 km/h (3 Bft)
20.04.2024 08:30 19,4 C 5,2 C 14,2 C 14,4 C 4,5 C 2,2 C 47 % 75 % 67 % 57 % 1017,9 hPa 0,0 mm 15,5 km/h (3 Bft) N-NW 337 1,1 C -0,9 C 12,9 km/h (3 Bft)
20.04.2024 08:25 19,4 C 5,1 C 14,2 C 14,4 C 4,4 C 2,1 C 47 % 74 % 67 % 57 % 1017,9 hPa 0,0 mm 15,5 km/h (3 Bft) N 360 0,9 C -1,1 C 10,6 km/h (2 Bft)
20.04.2024 08:20 19,4 C 5,0 C 14,2 C 14,5 C 4,4 C 2,2 C 47 % 74 % 67 % 58 % 1017,9 hPa 0,0 mm 14,8 km/h (3 Bft) NW 315 0,8 C -0,8 C 19,0 km/h (3 Bft)
20.04.2024 08:15 19,5 C 5,0 C 14,2 C 14,4 C 4,4 C 2,7 C 46 % 75 % 67 % 57 % 1017,9 hPa 0,0 mm 13,4 km/h (3 Bft) N-NW 337 0,9 C -0,1 C 13,5 km/h (3 Bft)
20.04.2024 08:10 19,6 C 5,0 C 14,3 C 14,4 C 4,3 C 2,3 C 46 % 75 % 67 % 57 % 1017,8 hPa 0,0 mm 15,2 km/h (3 Bft) N-NW 337 0,9 C -1,0 C 20,0 km/h (4 Bft)
20.04.2024 08:05 19,6 C 5,0 C 14,2 C 14,5 C 4,3 C 2,0 C 47 % 74 % 67 % 58 % 1017,8 hPa 0,0 mm 18,0 km/h (3 Bft) NW 315 0,8 C -2,3 C 11,4 km/h (2 Bft)
20.04.2024 08:00 19,6 C 5,0 C 14,3 C 14,5 C 4,4 C 2,2 C 47 % 74 % 67 % 58 % 1017,8 hPa 0,0 mm 17,7 km/h (3 Bft) N-NW 337 0,8 C -2,2 C 19,6 km/h (3 Bft)
20.04.2024 07:55 19,6 C 5,1 C 14,3 C 14,5 C 4,5 C 2,5 C 47 % 74 % 67 % 58 % 1017,8 hPa 0,0 mm 15,2 km/h (3 Bft) N-NW 337 0,9 C -0,9 C 13,0 km/h (3 Bft)
20.04.2024 07:50 19,7 C 5,0 C 14,3 C 14,5 C 4,1 C 2,3 C 47 % 74 % 67 % 58 % 1017,4 hPa 0,0 mm 14,3 km/h (3 Bft) N-NW 337 0,8 C -0,6 C 16,1 km/h (3 Bft)
20.04.2024 07:45 19,8 C 5,0 C 14,3 C 14,5 C 4,1 C 2,3 C 46 % 74 % 67 % 58 % 1017,4 hPa 0,0 mm 13,4 km/h (3 Bft) S-SW 202 0,8 C -0,1 C 8,9 km/h (2 Bft)
20.04.2024 07:40 19,8 C 5,0 C 14,3 C 14,5 C 4,1 C 2,3 C 46 % 75 % 67 % 58 % 1017,4 hPa 0,0 mm 13,4 km/h (3 Bft) N-NW 337 0,9 C -0,1 C 9,2 km/h (2 Bft)
20.04.2024 07:35 19,8 C 4,9 C 14,3 C 14,5 C 4,0 C 2,3 C 46 % 75 % 67 % 58 % 1017,4 hPa 0,0 mm 13,4 km/h (3 Bft) N-NW 337 0,8 C -0,2 C 9,7 km/h (2 Bft)
20.04.2024 07:30 19,8 C 4,9 C 14,3 C 14,5 C 4,3 C 2,3 C 46 % 75 % 67 % 58 % 1017,4 hPa 0,0 mm 13,4 km/h (3 Bft) N-NW 337 0,8 C -0,2 C 11,3 km/h (2 Bft)
20.04.2024 07:25 19,8 C 4,9 C 14,3 C 14,5 C 4,1 C 2,4 C 46 % 74 % 67 % 58 % 1017,4 hPa 0,0 mm 13,7 km/h (3 Bft) N-NW 337 0,7 C -0,4 C 10,6 km/h (2 Bft)
20.04.2024 07:20 19,9 C 4,9 C 14,3 C 14,5 C 4,3 C 2,4 C 46 % 74 % 67 % 58 % 1017,4 hPa 0,0 mm 13,4 km/h (3 Bft) N-NW 337 0,7 C -0,2 C 9,0 km/h (2 Bft)
20.04.2024 07:15 19,9 C 4,9 C 14,3 C 14,5 C 4,0 C 2,2 C 46 % 74 % 67 % 58 % 1017,4 hPa 0,0 mm 14,1 km/h (3 Bft) N-NW 337 0,7 C -0,6 C 16,7 km/h (3 Bft)
20.04.2024 07:10 19,9 C 4,9 C 14,3 C 14,5 C 4,3 C 2,2 C 46 % 74 % 67 % 57 % 1016,9 hPa 0,0 mm 14,3 km/h (3 Bft) N-NW 337 0,7 C -0,7 C 14,5 km/h (3 Bft)
20.04.2024 07:05 19,9 C 4,9 C 14,3 C 14,5 C 4,4 C 2,5 C 46 % 75 % 67 % 58 % 1016,9 hPa 0,0 mm 13,0 km/h (3 Bft) N-NW 337 0,8 C 0,0 C 11,7 km/h (2 Bft)
20.04.2024 07:00 19,9 C 4,9 C 14,3 C 14,5 C 4,2 C 2,8 C 46 % 75 % 67 % 58 % 1016,9 hPa 0,0 mm 11,8 km/h (2 Bft) N-NW 337 0,8 C 0,8 C 9,7 km/h (2 Bft)
20.04.2024 06:55 19,8 C 4,9 C 14,3 C 14,6 C 4,2 C 2,8 C 46 % 75 % 67 % 57 % 1016,9 hPa 0,0 mm 11,4 km/h (2 Bft) NW 315 0,8 C 1,0 C 9,7 km/h (2 Bft)
20.04.2024 06:50 19,8 C 4,9 C 14,3 C 14,5 C 4,4 C 2,8 C 47 % 75 % 67 % 57 % 1016,8 hPa 0,0 mm 11,6 km/h (2 Bft) N-NW 337 0,8 C 0,9 C 9,5 km/h (2 Bft)
20.04.2024 06:45 19,7 C 4,9 C 14,3 C 14,6 C 4,4 C 2,7 C 47 % 75 % 67 % 57 % 1016,8 hPa 0,0 mm 12,1 km/h (2 Bft) N-NW 337 0,8 C 0,6 C 15,4 km/h (3 Bft)
20.04.2024 06:40 19,6 C 4,9 C 14,4 C 14,6 C 4,4 C 2,8 C 47 % 75 % 67 % 57 % 1016,8 hPa 0,0 mm 11,4 km/h (2 Bft) N-NW 337 0,8 C 1,0 C 10,6 km/h (2 Bft)
20.04.2024 06:35 19,6 C 4,9 C 14,4 C 14,6 C 4,2 C 2,7 C 47 % 75 % 67 % 57 % 1016,8 hPa 0,0 mm 12,1 km/h (2 Bft) NW 315 0,8 C 0,6 C 9,2 km/h (2 Bft)
20.04.2024 06:30 19,4 C 4,9 C 14,4 C 14,6 C 4,2 C 2,7 C 47 % 75 % 67 % 57 % 1015,9 hPa 0,0 mm 12,5 km/h (3 Bft) N 360 0,8 C 0,3 C 9,8 km/h (2 Bft)
20.04.2024 06:25 19,2 C 4,9 C 14,4 C 14,6 C 4,4 C 2,7 C 48 % 75 % 67 % 57 % 1015,9 hPa 0,0 mm 12,5 km/h (3 Bft) NW 315 0,8 C 0,3 C 10,6 km/h (2 Bft)
20.04.2024 06:20 19,1 C 4,9 C 14,4 C 14,6 C 4,4 C 2,8 C 48 % 75 % 67 % 57 % 1015,9 hPa 0,0 mm 12,5 km/h (3 Bft) NW 315 0,8 C 0,3 C 11,9 km/h (2 Bft)
20.04.2024 06:15 18,9 C 4,9 C 14,4 C 14,6 C 4,4 C 2,6 C 48 % 75 % 67 % 57 % 1015,9 hPa 0,0 mm 13,9 km/h (3 Bft) N-NW 337 0,8 C -0,5 C 9,2 km/h (2 Bft)
20.04.2024 06:10 18,8 C 4,9 C 14,4 C 14,6 C 4,4 C 2,5 C 49 % 75 % 67 % 57 % 1016,2 hPa 0,0 mm 14,3 km/h (3 Bft) NW 315 0,8 C -0,7 C 10,1 km/h (2 Bft)
20.04.2024 06:05 18,8 C 5,0 C 14,4 C 14,6 C 4,5 C 2,9 C 49 % 75 % 67 % 57 % 1016,2 hPa 0,0 mm 12,7 km/h (3 Bft) N 360 0,9 C 0,3 C 10,5 km/h (2 Bft)
20.04.2024 06:00 18,8 C 5,0 C 14,4 C 14,6 C 4,5 C 2,8 C 49 % 75 % 67 % 57 % 1016,2 hPa 0,0 mm 13,0 km/h (3 Bft) NW 315 0,9 C 0,2 C 16,6 km/h (3 Bft)
20.04.2024 05:55 18,8 C 5,0 C 14,4 C 14,6 C 4,5 C 2,7 C 49 % 75 % 67 % 57 % 1016,2 hPa 0,0 mm 13,7 km/h (3 Bft) N 360 0,9 C -0,2 C 12,2 km/h (2 Bft)
20.04.2024 05:50 18,8 C 5,0 C 14,4 C 14,6 C 4,5 C 2,8 C 49 % 75 % 67 % 57 % 1015,4 hPa 0,0 mm 13,2 km/h (3 Bft) N-NW 337 0,9 C 0,0 C 10,0 km/h (2 Bft)
20.04.2024 05:45 18,8 C 5,0 C 14,4 C 14,7 C 4,3 C 2,9 C 49 % 75 % 67 % 57 % 1015,4 hPa 0,0 mm 12,7 km/h (3 Bft) W-NW 292 0,9 C 0,3 C 10,3 km/h (2 Bft)
20.04.2024 05:40 18,8 C 5,1 C 14,4 C 14,7 C 4,6 C 2,9 C 49 % 75 % 67 % 57 % 1015,4 hPa 0,0 mm 13,2 km/h (3 Bft) N-NW 337 1,0 C 0,2 C 10,0 km/h (2 Bft)
20.04.2024 05:35 18,8 C 5,2 C 14,4 C 14,6 C 4,5 C 3,1 C 49 % 75 % 67 % 57 % 1015,4 hPa 0,0 mm 13,0 km/h (3 Bft) NW 315 1,1 C 0,4 C 6,9 km/h (2 Bft)
20.04.2024 05:30 18,8 C 5,2 C 14,4 C 14,6 C 4,7 C 3,1 C 49 % 75 % 67 % 57 % 1015,4 hPa 0,0 mm 13,2 km/h (3 Bft) NW 315 1,1 C 0,3 C 14,8 km/h (3 Bft)
20.04.2024 05:25 18,9 C 5,3 C 14,4 C 14,6 C 4,7 C 2,9 C 49 % 75 % 67 % 57 % 1015,4 hPa 0,0 mm 13,4 km/h (3 Bft) NW 315 1,2 C 0,3 C 11,6 km/h (2 Bft)
20.04.2024 05:20 18,8 C 5,2 C 14,4 C 14,7 C 4,6 C 2,8 C 49 % 75 % 67 % 57 % 1015,4 hPa 0,0 mm 13,9 km/h (3 Bft) N-NW 337 1,1 C -0,1 C 10,5 km/h (2 Bft)
20.04.2024 05:15 18,9 C 5,2 C 14,4 C 14,6 C 4,6 C 2,7 C 49 % 75 % 67 % 57 % 1015,4 hPa 0,0 mm 14,8 km/h (3 Bft) N-NW 337 1,1 C -0,6 C 12,6 km/h (3 Bft)
20.04.2024 05:10 18,9 C 5,3 C 14,4 C 14,6 C 4,8 C 2,8 C 49 % 76 % 67 % 57 % 1015,3 hPa 0,0 mm 14,1 km/h (3 Bft) N 360 1,4 C -0,1 C 11,1 km/h (2 Bft)
20.04.2024 05:05 18,9 C 5,3 C 14,4 C 14,6 C 4,8 C 3,1 C 49 % 77 % 67 % 57 % 1015,3 hPa 0,0 mm 12,3 km/h (3 Bft) O-NO 67 1,6 C 0,9 C 9,2 km/h (2 Bft)
20.04.2024 05:00 18,9 C 5,3 C 14,4 C 14,6 C 4,8 C 3,3 C 49 % 77 % 67 % 57 % 1015,3 hPa 0,0 mm 12,1 km/h (2 Bft) N-NW 337 1,6 C 1,0 C 13,2 km/h (3 Bft)
20.04.2024 04:55 18,9 C 5,2 C 14,4 C 14,6 C 4,7 C 3,1 C 49 % 76 % 67 % 57 % 1015,3 hPa 0,0 mm 12,1 km/h (2 Bft) N-NW 337 1,3 C 0,9 C 10,0 km/h (2 Bft)
20.04.2024 04:50 18,9 C 5,3 C 14,4 C 14,6 C 4,6 C 3,3 C 49 % 76 % 67 % 57 % 1014,9 hPa 0,0 mm 12,1 km/h (2 Bft) W-NW 292 1,4 C 1,0 C 8,7 km/h (2 Bft)
20.04.2024 04:45 19,0 C 5,3 C 14,4 C 14,6 C 4,6 C 3,3 C 49 % 76 % 67 % 57 % 1014,9 hPa 0,0 mm 12,1 km/h (2 Bft) N-NW 337 1,4 C 1,0 C 11,9 km/h (2 Bft)
20.04.2024 04:40 19,0 C 5,2 C 14,4 C 14,6 C 4,8 C 3,3 C 49 % 76 % 67 % 57 % 1014,9 hPa 0,0 mm 12,1 km/h (2 Bft) N-NW 337 1,3 C 0,9 C 10,1 km/h (2 Bft)
20.04.2024 04:35 19,0 C 5,2 C 14,4 C 14,6 C 4,7 C 3,1 C 49 % 75 % 67 % 57 % 1014,9 hPa 0,0 mm 12,1 km/h (2 Bft) N-NW 337 1,1 C 0,9 C 6,9 km/h (2 Bft)
20.04.2024 04:30 19,0 C 5,2 C 14,4 C 14,6 C 4,8 C 3,3 C 49 % 75 % 67 % 57 % 1014,9 hPa 0,0 mm 11,6 km/h (2 Bft) N 360 1,1 C 1,2 C 8,7 km/h (2 Bft)
20.04.2024 04:25 19,0 C 5,2 C 14,4 C 14,6 C 4,6 C 3,5 C 49 % 76 % 67 % 57 % 1014,9 hPa 0,0 mm 10,7 km/h (2 Bft) NW 315 1,3 C 1,8 C 9,3 km/h (2 Bft)
20.04.2024 04:20 19,0 C 5,3 C 14,4 C 14,6 C 4,8 C 3,4 C 49 % 76 % 67 % 57 % 1014,9 hPa 0,0 mm 11,2 km/h (2 Bft) NW 315 1,4 C 1,6 C 7,1 km/h (2 Bft)
20.04.2024 04:15 19,0 C 5,3 C 14,4 C 14,6 C 4,8 C 3,2 C 49 % 76 % 67 % 57 % 1014,9 hPa 0,0 mm 11,4 km/h (2 Bft) NW 315 1,4 C 1,5 C 10,1 km/h (2 Bft)
20.04.2024 04:10 19,1 C 5,3 C 14,4 C 14,6 C 4,8 C 3,3 C 48 % 77 % 67 % 57 % 1014,8 hPa 0,0 mm 10,9 km/h (2 Bft) NW 315 1,6 C 1,8 C 9,5 km/h (2 Bft)
20.04.2024 04:05 19,1 C 5,2 C 14,4 C 14,6 C 4,7 C 3,0 C 48 % 76 % 67 % 57 % 1014,8 hPa 0,0 mm 12,7 km/h (3 Bft) N-NW 337 1,3 C 0,6 C 9,8 km/h (2 Bft)
20.04.2024 04:00 19,1 C 5,2 C 14,4 C 14,6 C 4,4 C 2,8 C 48 % 76 % 67 % 57 % 1014,8 hPa 0,0 mm 13,9 km/h (3 Bft) N-NW 337 1,3 C -0,1 C 10,1 km/h (2 Bft)
20.04.2024 03:55 19,1 C 5,3 C 14,4 C 14,6 C 4,8 C 2,8 C 48 % 76 % 67 % 57 % 1014,8 hPa 0,0 mm 13,9 km/h (3 Bft) N-NW 337 1,4 C 0,0 C 11,6 km/h (2 Bft)
20.04.2024 03:50 19,2 C 5,3 C 14,4 C 14,6 C 4,8 C 3,1 C 48 % 76 % 67 % 57 % 1014,4 hPa 0,0 mm 13,4 km/h (3 Bft) N-NW 337 1,4 C 0,3 C 11,9 km/h (2 Bft)
20.04.2024 03:45 19,2 C 5,3 C 14,4 C 14,6 C 4,8 C 2,9 C 48 % 76 % 67 % 57 % 1014,4 hPa 0,0 mm 13,2 km/h (3 Bft) NW 315 1,4 C 0,4 C 14,6 km/h (3 Bft)
20.04.2024 03:40 19,2 C 5,2 C 14,3 C 14,6 C 4,6 C 3,3 C 48 % 76 % 67 % 57 % 1014,4 hPa 0,0 mm 12,1 km/h (2 Bft) NW 315 1,3 C 0,9 C 11,1 km/h (2 Bft)
20.04.2024 03:35 19,2 C 5,2 C 14,4 C 14,6 C 4,6 C 3,3 C 48 % 76 % 67 % 57 % 1014,4 hPa 0,0 mm 10,7 km/h (2 Bft) NW 315 1,3 C 1,8 C 8,2 km/h (2 Bft)
20.04.2024 03:30 19,2 C 5,1 C 14,4 C 14,6 C 4,5 C 3,4 C 48 % 76 % 67 % 57 % 1014,6 hPa 0,0 mm 9,8 km/h (2 Bft) NW 315 1,2 C 2,3 C 5,8 km/h (2 Bft)
20.04.2024 03:25 19,2 C 5,1 C 14,4 C 14,6 C 4,5 C 3,2 C 48 % 75 % 67 % 57 % 1014,6 hPa 0,0 mm 10,2 km/h (2 Bft) NW 315 1,0 C 2,0 C 8,2 km/h (2 Bft)
20.04.2024 03:20 19,2 C 5,0 C 14,4 C 14,6 C 4,4 C 3,1 C 48 % 75 % 67 % 57 % 1014,6 hPa 0,0 mm 10,7 km/h (2 Bft) W 270 0,9 C 1,6 C 8,9 km/h (2 Bft)
20.04.2024 03:15 19,3 C 5,0 C 14,4 C 14,6 C 4,4 C 3,2 C 48 % 74 % 67 % 57 % 1014,6 hPa 0,0 mm 9,3 km/h (2 Bft) W 270 0,8 C 2,6 C 6,1 km/h (2 Bft)
20.04.2024 03:10 19,3 C 5,0 C 14,3 C 14,6 C 4,3 C 3,0 C 48 % 74 % 67 % 57 % 1014,6 hPa 0,0 mm 9,6 km/h (2 Bft) NW 315 0,8 C 2,4 C 8,9 km/h (2 Bft)
20.04.2024 03:05 19,2 C 5,0 C 14,3 C 14,6 C 4,2 C 2,7 C 48 % 74 % 67 % 57 % 1014,6 hPa 0,0 mm 10,7 km/h (2 Bft) W-NW 292 0,8 C 1,6 C 9,3 km/h (2 Bft)
20.04.2024 03:00 19,2 C 5,0 C 14,4 C 14,6 C 4,4 C 2,4 C 48 % 74 % 67 % 57 % 1014,6 hPa 0,0 mm 11,4 km/h (2 Bft) NW 315 0,8 C 1,1 C 8,4 km/h (2 Bft)
20.04.2024 02:55 19,2 C 5,0 C 14,3 C 14,6 C 4,2 C 2,5 C 48 % 74 % 67 % 57 % 1014,6 hPa 0,0 mm 10,7 km/h (2 Bft) W-NW 292 0,8 C 1,6 C 12,1 km/h (2 Bft)
20.04.2024 02:50 19,2 C 5,0 C 14,4 C 14,6 C 4,2 C 2,7 C 48 % 74 % 67 % 57 % 1014,3 hPa 0,0 mm 10,5 km/h (2 Bft) N-NW 337 0,8 C 1,7 C 9,3 km/h (2 Bft)
20.04.2024 02:45 19,4 C 5,1 C 14,4 C 14,6 C 4,3 C 2,7 C 48 % 75 % 67 % 57 % 1014,3 hPa 0,0 mm 10,7 km/h (2 Bft) NW 315 1,0 C 1,7 C 11,4 km/h (2 Bft)
20.04.2024 02:40 19,4 C 5,1 C 14,3 C 14,6 C 4,3 C 2,8 C 48 % 75 % 67 % 57 % 1014,3 hPa 0,0 mm 9,8 km/h (2 Bft) N-NW 337 1,0 C 2,3 C 8,0 km/h (2 Bft)
20.04.2024 02:35 19,4 C 5,1 C 14,3 C 14,6 C 4,4 C 3,0 C 48 % 75 % 67 % 57 % 1014,3 hPa 0,0 mm 9,6 km/h (2 Bft) NW 315 1,0 C 2,5 C 10,9 km/h (2 Bft)
20.04.2024 02:30 19,4 C 5,2 C 14,3 C 14,5 C 4,5 C 3,0 C 48 % 75 % 67 % 57 % 1014,2 hPa 0,0 mm 9,6 km/h (2 Bft) NW 315 1,1 C 2,6 C 9,2 km/h (2 Bft)
20.04.2024 02:25 19,5 C 5,2 C 14,3 C 14,5 C 4,4 C 2,9 C 48 % 75 % 67 % 57 % 1014,2 hPa 0,0 mm 10,7 km/h (2 Bft) N-NW 337 1,1 C 1,8 C 8,5 km/h (2 Bft)
20.04.2024 02:20 19,5 C 5,2 C 14,3 C 14,6 C 4,6 C 2,9 C 48 % 75 % 67 % 57 % 1014,2 hPa 0,0 mm 10,9 km/h (2 Bft) NW 315 1,1 C 1,7 C 8,9 km/h (2 Bft)
20.04.2024 02:15 19,5 C 5,3 C 14,3 C 14,6 C 4,8 C 3,0 C 48 % 74 % 67 % 57 % 1014,2 hPa 0,0 mm 11,2 km/h (2 Bft) W 270 1,0 C 1,6 C 10,0 km/h (2 Bft)
20.04.2024 02:10 19,6 C 5,4 C 14,3 C 14,5 C 4,6 C 3,1 C 48 % 74 % 67 % 57 % 1014,0 hPa 0,0 mm 12,3 km/h (3 Bft) NW 315 1,1 C 1,0 C 10,5 km/h (2 Bft)
20.04.2024 02:05 19,6 C 5,4 C 14,3 C 14,5 C 4,8 C 3,1 C 48 % 74 % 67 % 57 % 1014,0 hPa 0,0 mm 12,3 km/h (3 Bft) NW 315 1,1 C 1,0 C 7,4 km/h (2 Bft)
20.04.2024 02:00 19,6 C 5,4 C 14,3 C 14,5 C 4,6 C 2,9 C 48 % 74 % 67 % 57 % 1014,0 hPa 0,0 mm 13,2 km/h (3 Bft) NW 315 1,1 C 0,5 C 12,9 km/h (3 Bft)
_ Min-Zeit 05:20 01:20 15:15 15:50 00:50 00:50 21:40 15:05 02:00 02:00 02:00 - 03:15 - - 01:10 00:45 15:40
Minimum _ 18,8 C 4,4 C 13,9 C 14,1 C 3,7 C 1,0 C 45 % 47 % 67 % 57 % 1014,0 hPa - 9,3 km/h (2 Bft) - - -1,3 C -3,5 C 5,1 km/h (1 Bft)
_ Max-Zeit 17:05 17:00 02:45 05:20 15:45 15:45 04:15 04:10 02:00 07:00 22:55 02:00 15:15 - - 12:25 15:40 15:10
Maximum _ 21,6 C 10,7 C 14,4 C 14,7 C 15,0 C 15,0 C 49 % 77 % 67 % 58 % 1022,4 hPa 0,0 mm 23,0 km/h
N-NW (4 Bft)
- - 3,3 C 7,3 C 27,4 km/h
NW (4 Bft)
Durchschnitt _ 20,3 C 6,9 C 14,1 C 14,3 C 6,9 C 5,6 C 47 % 68 % 67 % 57 % 1018,9 hPa #0,0 mm 14,7 km/h (3 Bft) N-NW - 1,3 C 1,6 C 12,5 km/h (3 Bft)